Temp
1 1 1 1 2 2 2 2 2 2 3 3 3 3 4 4 4 5 5 5 5 6 6 6 6 6 6 6 6 7 7 7 7 7 7 7 8 8 8 8 8 9 9 9 9 9 8
1 1 1 1 1 1 2 2 2 2 2 3 3 3 3 4 4 4 4 5 5 5 6 6 6 6 6 6 6 6 6 7 7 7 7 7 7 8 8 8 8 9 8 8 8 8 8
0 1 1 1 1 1 1 2 2 2 2 3 3 3 3 3 4 4 4 4 4 5 5 5 5 5 5 5 6 6 6 6 7 7 7 7 7 7 8 7 8 8 8 8 8 8 8
0 0 1 1 1 1 1 2 2 2 2 2 2 3 3 3 3 4 4 4 4 4 4 4 5 5 5 5 5 5 6 6 6 6 6 6 7 7 7 7 7 7 7 7 7 7 7
0 0 0 0 1 1 1 1 2 2 2 2 2 2 2 3 3 3 3 3 4 4 4 4 4 4 4 5 5 5 5 6 6 6 6 6 6 6 6 6 6 6 6 7 7 7 7
0 0 0 -0 0 1 1 1 1 2 2 2 2 2 2 2 2 3 3 3 3 3 3 3 3 3 4 5 5 5 5 5 5 5 5 5 6 6 6 6 6 7 6 6 6 7 7
0 0 0 -0 -0 0 0 1 1 1 1 1 1 2 2 2 2 2 2 2 2 3 3 3 4 4 4 4 4 4 4 5 5 5 5 5 5 6 5 6 6 6 6 6 6 6 6
-0 -0 0 -0 -0 -0 0 0 0 1 1 1 1 1 1 1 1 2 2 2 2 2 2 3 3 3 3 4 4 4 4 4 4 4 4 4 5 5 5 5 5 5 5 5 5 5 5
0 -0 -0 -0 -0 -0 -0 -0 0 0 0 1 1 1 1 1 1 1 1 1 1 1 2 2 2 2 3 3 3 4 3 4 4 4 4 4 4 4 4 4 4 4 4 4 4 5 4
-0 -0 -0 -0 -0 -0 -0 -0 -0 -0 -0 -0 0 1 1 1 1 1 1 1 1 0 1 1 2 1 2 2 2 3 3 3 3 3 3 3 3 4 4 4 4 4 4 4 3 3 3
-1 -1 -0 -1 -1 -1 -1 -1 -0 -0 -0 -0 -0 -0 0 1 1 1 0 0 -0 -0 -3 1 1 1 2 1 2 2 2 2 2 3 3 3 3 3 3 3 3 3 3 3 3 2 2
-1 -1 -1 -1 -1 -1 -1 -1 -1 -1 -1 -0 -0 -0 -0 -0 -0 0 0 -1 -1 -1 -3 0 -0 0 1 1 1 1 2 1 2 1 2 2 2 2 2 2 2 2 2 1 1 1 -2
-1 -1 -1 -1 -1 -1 -1 -1 -1 -1 -0 -0 -0 -0 -1 -1 -1 -1 -1 -1 -2 -2 0 0 0 0 0 0 0 0 1 1 1 0 0 1 1 1 1 1 0 1 1 -0 -4 -6 -3
-2 -2 -1 -1 -1 -1 -1 -1 -1 -1 -1 -1 -1 -1 -1 -1 -1 -1 -1 -2 -3 -0 1 1 0 -0 -0 -1 -0 -0 -0 0 0 1 2 0 -1 -0 0 0 1 -0 -0 1 -4 -6 -5
-2 -2 -2 -2 -2 -2 -2 -2 -2 -2 -2 -1 -1 -1 -1 -2 -2 -2 -2 -3 -1 -0 0 1 1 0 0 0 -0 -0 -0 0 1 1 0 1 -0 -0 -1 -1 -1 -2 -2 -0 -2 -4 -5
-3 -3 -3 -3 -3 -2 -2 -2 -2 -2 -2 -2 -2 -2 -2 -2 -3 -3 -3 -3 -2 -1 0 1 1 0 1 1 0 1 1 2 1 1 -0 0 -0 -1 -2 -3 -3 -2 -2 -3 -2 -6 -7
-5 -4 -4 -3 -3 -3 -3 -3 -3 -3 -3 -3 -3 -3 -3 -3 -3 -4 -4 -3 -2 -1 -1 -0 0 0 1 1 1 1 1 1 2 2 1 -0 -0 -3 -3 -2 -1 -3 -3 -2 -2 -2 -6
-5 -6 -5 -4 -4 -4 -4 -4 -4 -4 -4 -4 -4 -4 -3 -3 -4 -4 -4 -3 -2 -1 -2 -1 -1 -1 -1 -0 0 0 0 1 1 1 1 -0 -1 -2 -2 -1 -2 -2 -2 -1 -1 -3 -3
-5 -5 -5 -7 -5 -5 -5 -5 -5 -5 -4 -5 -5 -4 -4 -4 -4 -4 -3 -3 -3 -2 -2 -2 -2 -2 -2 -1 -2 -1 -1 -0 -0 0 -0 -0 -2 -3 -4 -5 -4 -3 -1 -1 -1 -1 -1
-6 -6 -6 -6 -8 -7 -6 -6 -6 -6 -5 -6 -6 -6 -5 -5 -5 -4 -5 -4 -4 -3 -2 -3 -3 -3 -3 -3 -2 -2 -2 -2 -2 -1 -1 -1 -1 -1 -2 0 -0 -2 -1 -1 -2 -4 -4
-7 -7 -7 -6 -6 -6 -7 -7 -7 -7 -6 -6 -6 -6 -6 -4 -5 -5 -5 -4 -4 -4 -3 -3 -3 -3 -3 -3 -3 -3 -3 -3 -3 -3 -2 -3 -3 -2 -2 -2 -3 -3 -2 -2 -2 -1 -4
-7 -7 -6 -6 -7 -6 -6 -6 -8 -8 -8 -8 -7 -6 -6 -6 -5 -5 -5 -4 -4 -4 -5 -4 -3 -3 -3 -4 -3 -3 -4 -4 -4 -4 -4 -3 -3 -4 -3 -4 -4 -4 -3 -4 -4 -3 -3
-7 -6 -8 -7 -6 -7 -6 -6 -7 -8 -9 -8 -8 -7 -8 -7 -6 -5 -4 -4 -4 -4 -5 -4 -5 -5 -5 -5 -5 -5 -6 -7 -7 -6 -6 -6 -5 -5 -6 -6 -7 -7 -2 -3 -3 -2 -3
-9 -8 -7 -7 -8 -7 -6 -7 -7 -7 -7 -8 -8 -8 -8 -6 -7 -4 -5 -5 -4 -4 -4 -5 -5 -6 -6 -6 -6 -7 -7 -7 -7 -7 -6 -6 -6 -7 -8 -9 -9 -3 -2 -3 -4 -2 -3
-12 -9 -9 -8 -8 -7 -7 -7 -7 -6 -7 -7 -7 -7 -8 -8 -7 -7 -6 -6 -6 -6 -6 -6 -6 -6 -8 -9 -9 -9 -8 -8 -7 -7 -7 -7 -8 -8 -8 -8 -6 -4 -4 -5 -5 -3 -3
-13 -12 -11 -9 -9 -9 -9 -7 -7 -7 -7 -7 -7 -7 -7 -7 -7 -7 -8 -7 -6 -6 -7 -6 -6 -7 -8 -8 -9 -9 -8 -8 -7 -7 -6 -7 -8 -9 -8 -8 -8 -2 -4 -5 -5 -5 -3
-13 -13 -12 -11 -11 -10 -10 -9 -8 -8 -8 -8 -8 -7 -7 -8 -7 -8 -7 -7 -7 -7 -7 -7 -7 -8 -8 -8 -9 -9 -8 -8 -8 -7 -7 -8 -9 -9 -9 -8 -7 -5 -5 -6 -6 -4 -3
-13 -13 -13 -12 -12 -11 -10 -10 -10 -8 -8 -8 -8 -8 -8 -8 -9 -8 -8 -8 -8 -8 -7 -7 -8 -8 -8 -9 -9 -9 -9 -8 -8 -7 -7 -7 -9 -9 -9 -9 -8 -5 -6 -6 -4 -5 -5
-14 -13 -13 -12 -12 -12 -12 -11 -11 -11 -11 -9 -9 -9 -10 -10 -10 -9 -9 -9 -9 -8 -8 -8 -8 -8 -8 -8 -9 -9 -9 -8 -8 -8 -7 -8 -7 -7 -8 -7 -6 -5 -6 -6 -6 -6 -6
Height
3075 3074 3073 3075 3078 3080 3082 3084 3084 3084 3085 3088 3091 3093 3096 3098 3100 3102 3104 3106 3108 3111 3113 3115 3117 3120 3122 3125 3128 3130 3133 3137 3139 3142 3145 3147 3149 3151 3153 3154 3157 3158 3160 3162 3164 3166 3168
3073 3074 3074 3073 3074 3077 3079 3081 3083 3083 3084 3085 3088 3091 3093 3095 3098 3100 3102 3105 3107 3109 3111 3113 3115 3118 3121 3124 3127 3128 3131 3135 3137 3140 3143 3146 3148 3150 3152 3153 3156 3157 3159 3161 3163 3165 3167
3071 3071 3073 3073 3073 3074 3076 3078 3079 3081 3083 3084 3085 3087 3090 3093 3095 3097 3100 3103 3104 3107 3109 3111 3113 3115 3118 3122 3124 3127 3129 3132 3135 3138 3141 3144 3146 3149 3150 3152 3154 3156 3158 3159 3161 3163 3165
3066 3068 3068 3070 3072 3072 3073 3074 3077 3078 3080 3081 3084 3085 3087 3090 3093 3095 3097 3100 3102 3104 3106 3109 3111 3113 3115 3118 3121 3125 3127 3130 3133 3136 3139 3142 3144 3146 3149 3150 3152 3154 3157 3157 3159 3160 3162
3064 3065 3067 3067 3069 3070 3071 3072 3073 3074 3076 3078 3080 3082 3084 3086 3089 3092 3094 3096 3098 3100 3103 3106 3109 3111 3114 3116 3119 3122 3125 3128 3131 3134 3136 3139 3142 3144 3147 3148 3151 3151 3152 3154 3157 3158 3159
3061 3061 3064 3065 3066 3068 3069 3069 3071 3072 3073 3074 3076 3079 3081 3084 3086 3089 3091 3094 3095 3097 3100 3103 3105 3111 3111 3113 3116 3119 3121 3124 3127 3130 3134 3137 3139 3140 3143 3145 3146 3147 3150 3152 3153 3156 3156
3058 3058 3059 3062 3062 3064 3066 3067 3068 3069 3071 3072 3073 3075 3077 3080 3082 3085 3089 3091 3096 3097 3097 3100 3101 3103 3105 3109 3112 3115 3118 3122 3124 3127 3130 3133 3135 3137 3139 3141 3144 3146 3147 3149 3150 3152 3152
3055 3056 3056 3057 3059 3061 3062 3064 3065 3066 3068 3071 3072 3073 3075 3077 3079 3082 3085 3087 3090 3093 3095 3095 3097 3100 3102 3105 3108 3111 3115 3119 3120 3123 3126 3131 3131 3133 3135 3138 3140 3143 3144 3146 3147 3148 3148
3051 3052 3053 3054 3055 3057 3058 3060 3062 3064 3065 3066 3070 3072 3073 3074 3077 3079 3081 3084 3086 3089 3092 3093 3094 3096 3099 3103 3103 3107 3111 3113 3116 3119 3122 3125 3128 3129 3131 3134 3137 3139 3141 3142 3144 3144 3144
3048 3048 3049 3050 3052 3053 3054 3056 3057 3060 3062 3064 3065 3068 3071 3072 3076 3076 3078 3081 3084 3087 3089 3090 3089 3091 3094 3097 3100 3102 3105 3111 3113 3115 3118 3122 3123 3125 3127 3130 3133 3135 3137 3138 3140 3141 3141
3044 3044 3045 3046 3048 3049 3051 3053 3054 3056 3058 3061 3062 3064 3066 3070 3072 3074 3078 3079 3082 3085 3086 3084 3082 3084 3088 3093 3095 3096 3101 3104 3107 3110 3115 3115 3117 3120 3123 3126 3128 3131 3133 3135 3136 3136 3136
3039 3042 3041 3043 3044 3046 3048 3049 3051 3053 3055 3056 3059 3061 3063 3066 3069 3072 3075 3077 3081 3086 3079 3077 3077 3078 3082 3086 3089 3092 3096 3100 3103 3106 3108 3111 3114 3116 3118 3121 3124 3127 3130 3132 3133 3134 3132
3032 3034 3037 3038 3039 3041 3043 3045 3048 3049 3051 3054 3056 3058 3060 3062 3066 3068 3071 3076 3081 3077 3077 3074 3074 3075 3078 3081 3085 3088 3091 3094 3098 3102 3103 3107 3109 3111 3114 3117 3119 3122 3126 3130 3133 3134 3123
3022 3024 3027 3030 3033 3035 3038 3040 3042 3044 3047 3049 3051 3054 3056 3059 3061 3064 3067 3072 3072 3070 3070 3070 3071 3073 3075 3078 3081 3084 3087 3089 3092 3095 3097 3100 3106 3106 3108 3111 3114 3116 3120 3120 3127 3127 3117
3012 3015 3018 3021 3024 3027 3031 3033 3036 3039 3041 3044 3047 3049 3052 3054 3057 3059 3063 3063 3063 3065 3067 3068 3070 3071 3073 3075 3079 3080 3082 3084 3086 3090 3096 3095 3098 3098 3101 3104 3110 3111 3113 3116 3117 3118 3117
3001 3005 3008 3012 3015 3019 3022 3025 3028 3032 3035 3038 3041 3044 3047 3049 3052 3054 3055 3054 3058 3061 3064 3065 3067 3069 3069 3071 3075 3076 3078 3080 3082 3086 3089 3091 3093 3094 3096 3100 3103 3106 3108 3112 3114 3118 3117
2987 2992 2997 3001 3005 3009 3013 3016 3019 3023 3026 3030 3034 3037 3039 3042 3045 3046 3043 3047 3052 3056 3060 3062 3063 3065 3066 3069 3071 3073 3075 3078 3078 3080 3083 3087 3089 3092 3093 3093 3095 3098 3100 3104 3106 3105 3102
2974 2977 2983 2989 2994 2998 3003 3006 3010 3014 3017 3021 3025 3028 3031 3033 3037 3033 3033 3040 3048 3050 3054 3056 3058 3060 3063 3065 3067 3069 3071 3074 3076 3078 3079 3082 3084 3085 3087 3087 3089 3091 3094 3098 3099 3097 3093
2963 2966 2970 2976 2982 2987 2992 2996 3001 3003 3007 3014 3016 3019 3022 3024 3021 3022 3028 3034 3040 3044 3048 3049 3053 3055 3058 3061 3065 3065 3068 3071 3073 3075 3076 3079 3077 3080 3081 3084 3083 3083 3084 3087 3088 3087 3076
2950 2955 2959 2963 2968 2975 2980 2986 2991 2993 3000 3005 3009 3011 3012 3011 3010 3016 3021 3026 3032 3037 3040 3043 3046 3048 3050 3054 3058 3059 3062 3066 3068 3070 3071 3072 3069 3067 3067 3072 3073 3073 3075 3078 3080 3075 3070
2940 2942 2949 2953 2957 2961 2967 2974 2980 2983 2988 2995 2996 2995 2998 2997 3000 3008 3014 3017 3022 3026 3031 3034 3035 3038 3044 3047 3049 3049 3055 3059 3062 3062 3063 3064 3058 3061 3062 3064 3066 3067 3067 3069 3063 3062 3064
2928 2930 2935 2940 2946 2951 2956 2959 2966 2972 2978 2981 2980 2982 2990 2991 2997 3001 3002 3001 3008 3016 3021 3024 3027 3033 3035 3037 3040 3043 3047 3050 3053 3054 3055 3053 3050 3053 3051 3053 3057 3057 3052 3050 3051 3053 3050
2912 2917 2923 2930 2936 2938 2942 2948 2953 2958 2962 2961 2969 2973 2979 2982 2985 2988 2982 2989 2998 3008 3008 3014 3019 3024 3024 3022 3034 3035 3036 3038 3041 3042 3044 3047 3045 3046 3037 3046 3049 3045 3016 3030 3033 3028 3032
2900 2905 2912 2918 2921 2927 2931 2936 2942 2947 2947 2953 2958 2964 2969 2964 2971 2967 2978 2984 2987 2991 2996 3004 3008 3010 3012 3016 3021 3019 3021 3023 3026 3029 3032 3031 3034 3039 3036 3039 3037 2999 3015 3016 3014 3015 3017
2889 2894 2900 2905 2911 2916 2920 2924 2927 2933 2939 2943 2947 2949 2953 2952 2957 2963 2964 2972 2977 2981 2983 2990 2996 2998 3002 3005 3007 3007 3008 3010 3005 3010 3013 3018 3023 3025 3025 3022 3013 2999 3000 3005 3007 2997 3007
2881 2885 2890 2895 2900 2907 2911 2915 2921 2926 2932 2937 2932 2937 2943 2947 2945 2953 2955 2959 2964 2968 2974 2974 2986 2988 2988 2991 2993 2992 2992 2993 2994 2991 2993 3000 3008 3011 3011 3007 3003 2973 2995 2996 3000 2990 2995
2875 2879 2884 2888 2891 2896 2902 2908 2913 2917 2920 2923 2922 2930 2934 2934 2939 2944 2945 2946 2954 2957 2958 2964 2970 2973 2975 2975 2977 2978 2978 2981 2982 2981 2984 2988 2992 2992 2994 2993 2985 2980 2986 2991 2992 2980 2985
2872 2874 2877 2882 2886 2889 2894 2898 2904 2908 2911 2915 2920 2920 2924 2926 2930 2933 2937 2940 2942 2944 2949 2952 2959 2957 2962 2963 2964 2964 2964 2963 2968 2965 2968 2971 2978 2977 2981 2982 2978 2972 2976 2978 2973 2974 2979
2869 2871 2874 2878 2881 2884 2888 2890 2895 2900 2905 2907 2907 2912 2918 2921 2923 2925 2930 2932 2934 2937 2941 2941 2944 2946 2950 2950 2950 2952 2952 2952 2952 2953 2956 2960 2956 2960 2962 2959 2962 2966 2965 2966 2964 2966 2967
Wind_Speed
8 8 7 8 9 11 12 12 12 12 12 12 13 13 14 14 15 16 17 16 16 17 18 18 19 20 21 21 18 18 20 20 19 19 18 18 17 16 15 14 13 10 11 12 12 11 10
10 10 9 9 10 11 12 12 12 12 13 13 13 14 14 15 16 16 15 16 16 17 18 18 20 21 22 21 21 14 21 20 19 18 18 18 17 16 16 14 14 12 12 12 12 11 11
12 12 13 12 12 12 14 14 14 14 14 14 14 14 15 15 16 16 17 16 16 17 18 19 20 22 22 22 21 17 20 20 19 19 18 18 17 17 15 14 14 13 14 14 13 13 13
11 14 13 14 14 14 14 15 15 15 15 15 15 15 15 16 16 17 17 17 17 17 17 19 20 22 23 22 22 21 15 20 20 19 18 18 18 17 14 16 15 14 15 15 15 14 14
11 12 14 14 15 15 15 16 16 16 16 17 17 16 16 16 16 17 17 17 17 17 17 18 20 21 22 23 23 21 22 19 20 19 18 18 18 17 17 16 14 17 12 17 13 15 16
9 10 12 13 14 14 14 15 15 16 18 18 18 17 17 17 17 17 17 17 17 17 17 18 20 18 17 23 24 23 21 21 20 20 19 19 19 19 19 19 15 16 19 13 16 16 16
9 9 10 11 12 13 14 13 13 15 17 18 18 18 18 18 18 17 17 17 17 18 19 21 17 24 15 19 24 24 22 20 20 20 20 20 20 20 18 18 18 13 15 15 16 16 16
8 9 10 11 11 12 12 12 13 13 14 16 17 17 18 18 18 18 18 18 18 17 18 21 21 21 23 18 21 25 25 24 23 22 21 20 21 20 19 20 20 19 16 15 15 16 18
10 9 10 12 12 13 12 12 13 13 13 15 16 16 17 18 18 18 17 17 17 16 13 19 22 20 22 20 20 23 26 25 24 24 23 22 17 22 21 20 20 20 19 18 17 16 18
16 13 12 12 13 14 14 14 14 13 13 13 14 16 16 17 18 19 18 17 16 14 8 12 23 22 22 22 19 20 23 25 26 24 24 20 22 18 21 22 21 21 20 19 18 16 10
20 18 16 15 15 14 14 14 14 15 14 13 13 14 17 16 16 18 18 17 15 13 1 11 21 24 26 26 18 26 21 23 22 23 24 19 18 24 22 21 22 20 18 16 17 17 18
25 23 21 19 18 17 17 17 17 16 15 15 14 13 14 16 16 16 18 17 15 9 6 7 10 20 24 27 26 19 25 24 22 21 21 21 17 17 23 23 21 18 15 12 11 11 6
29 28 27 24 23 21 20 19 20 19 19 18 17 15 17 18 18 17 19 19 12 7 6 8 11 15 21 23 26 24 22 26 22 19 22 22 22 21 18 19 20 21 16 2 2 2 6
33 32 31 29 28 26 24 23 22 22 22 21 21 20 20 20 21 20 22 22 9 8 16 4 8 12 13 17 22 23 23 24 26 23 13 24 12 24 23 25 18 25 24 8 8 4 3
38 36 35 33 31 29 28 27 26 25 24 23 22 22 24 24 25 25 26 25 17 12 11 19 10 9 14 15 11 18 23 25 25 26 16 14 16 16 25 27 23 20 23 23 2 4 4
42 41 39 37 35 34 32 31 30 29 27 26 25 23 23 24 26 27 30 30 23 20 21 15 11 9 8 13 15 13 13 9 21 20 25 13 6 15 22 22 26 20 18 11 12 3 5
53 44 43 41 38 37 36 35 34 32 31 30 28 27 26 26 28 32 37 36 32 26 24 16 16 15 15 13 17 17 9 10 12 14 21 26 16 10 17 20 25 28 24 15 10 8 5
30 55 44 43 41 39 38 37 36 35 34 33 31 31 30 30 33 39 42 38 35 29 32 25 22 19 18 16 15 17 14 14 13 14 17 25 14 12 20 20 24 28 29 30 16 9 15
35 32 40 47 44 41 39 38 37 38 37 33 34 35 31 32 41 44 41 38 36 35 33 30 29 28 25 20 15 14 17 15 13 12 10 16 15 7 5 17 22 27 35 36 38 38 37
46 40 32 41 49 41 39 39 39 41 39 37 36 35 38 39 42 40 41 41 38 35 34 35 35 32 30 28 27 20 20 15 20 23 25 25 29 26 22 14 10 17 30 37 41 32 29
38 41 40 40 35 34 49 43 39 41 41 39 42 45 42 36 52 47 42 39 38 40 38 37 39 39 37 34 34 35 31 27 26 25 28 32 38 36 37 37 34 33 33 32 39 45 38
46 27 41 37 35 35 36 45 46 45 42 43 48 52 48 49 46 33 39 50 49 43 39 41 41 38 37 39 40 36 27 27 29 25 34 38 39 33 40 40 37 41 48 48 49 49 54
47 54 43 36 45 39 41 41 51 51 50 51 51 50 48 47 51 53 60 55 52 48 49 46 43 39 43 52 45 42 41 41 40 41 40 40 41 40 47 33 24 26 71 63 64 69 67
45 44 42 49 36 30 41 39 35 42 58 50 50 52 49 58 56 64 58 56 55 55 53 48 41 42 46 41 40 45 45 44 41 40 39 42 39 34 29 11 8 62 49 40 35 42 52
27 40 41 39 38 36 34 40 41 59 55 55 50 57 56 60 60 55 57 57 57 51 50 48 43 39 35 36 36 37 43 48 55 56 56 54 50 33 24 27 38 51 47 37 34 52 47
24 20 28 36 42 40 37 39 34 35 44 49 59 49 55 43 54 57 54 59 61 55 53 50 42 39 40 41 36 25 18 25 12 17 32 44 52 47 27 14 15 68 44 34 31 47 48
21 23 23 19 24 39 40 38 36 40 36 42 46 50 48 48 56 38 38 50 46 48 49 44 41 44 47 44 41 31 29 31 25 24 17 24 41 49 45 30 30 53 45 35 19 40 20
13 15 27 22 21 24 36 45 43 43 40 37 36 34 39 42 39 31 33 39 36 35 38 39 35 39 36 41 36 27 28 34 35 44 38 37 27 33 41 29 26 51 39 42 44 37 30
11 10 20 14 23 19 18 24 36 39 34 36 29 35 23 15 16 27 29 29 26 25 22 34 31 21 24 26 34 31 22 22 39 36 45 38 45 38 32 32 34 27 33 35 37 37 37
Wind_Direction
260 247 220 226 231 234 235 231 225 215 212 216 220 219 221 218 217 217 213 211 210 210 211 210 209 207 205 202 198 199 198 198 199 200 201 202 200 197 193 195 193 195 193 186 185 189 194
266 261 242 224 217 226 232 231 230 225 219 214 215 220 219 217 218 219 221 217 212 212 214 213 210 209 207 205 204 201 199 201 202 203 205 206 205 201 199 199 195 197 192 193 193 197 204
254 252 256 239 229 224 225 227 226 224 225 222 218 217 218 219 220 218 220 222 214 214 215 214 211 211 210 207 210 207 201 202 204 205 207 209 208 206 205 200 201 197 194 197 201 206 213
250 252 244 245 236 231 230 224 226 228 225 223 224 221 221 220 219 220 216 214 215 216 214 214 212 212 213 209 212 212 206 206 206 207 210 211 211 209 207 207 197 195 199 202 210 216 222
251 249 247 240 243 235 234 236 230 226 227 226 223 224 221 221 222 222 219 216 214 214 214 213 213 213 213 212 213 213 212 209 208 209 210 212 212 212 210 205 197 200 211 213 217 225 231
245 243 247 240 237 240 238 237 236 235 226 223 223 222 222 220 219 220 221 217 216 215 212 213 213 212 218 214 215 215 213 211 209 210 212 212 212 213 212 208 205 214 216 216 226 233 238
243 237 235 240 234 233 237 238 241 237 233 229 219 218 216 216 216 216 216 217 217 217 212 212 213 215 217 214 214 215 214 212 209 210 212 213 213 215 217 219 222 223 224 230 237 242 246
248 239 231 231 234 232 235 240 239 239 233 234 229 219 215 213 212 211 213 214 218 219 218 215 218 215 219 216 216 214 212 212 211 211 211 212 216 217 219 220 224 228 229 231 242 246 252
238 239 235 229 226 227 231 235 241 238 234 225 227 226 219 212 210 207 208 212 214 214 220 223 221 219 220 218 217 216 214 214 215 216 218 221 225 224 224 223 225 230 233 237 242 252 261
238 236 233 229 228 227 227 227 225 226 229 226 219 218 221 216 207 205 206 204 206 208 221 233 223 222 220 216 215 212 215 217 220 220 221 226 224 222 223 225 226 231 233 237 243 250 255
244 238 236 232 230 227 225 224 220 219 214 218 217 217 210 217 218 209 205 200 195 189 302 225 217 214 216 212 215 214 211 213 217 219 215 217 220 224 224 224 226 233 236 241 247 252 262
249 248 242 239 236 234 233 228 223 224 224 217 215 213 213 208 207 208 202 195 187 192 249 218 213 214 214 214 216 212 213 213 214 214 217 220 220 218 223 226 227 228 228 235 246 252 262
246 245 245 241 238 236 234 234 234 229 226 224 221 214 207 205 206 202 197 192 183 210 218 228 217 214 214 214 217 217 214 213 208 203 210 215 218 219 215 216 218 217 206 199 307 204 232
243 241 240 240 239 237 236 235 234 232 230 227 223 217 215 210 206 203 201 192 199 211 220 213 213 209 211 210 219 219 219 217 217 217 212 214 211 222 222 219 221 211 203 193 198 202 250
245 242 239 238 237 236 236 235 235 234 232 230 226 220 218 213 211 209 206 200 212 210 219 237 232 215 215 214 208 217 224 227 226 224 210 211 216 218 222 219 213 211 210 219 207 256 301
248 245 241 238 236 234 233 233 233 233 233 232 230 226 222 219 217 215 213 213 214 214 228 237 233 219 219 219 209 203 205 227 227 225 219 218 208 218 215 214 213 212 210 198 204 181 250
241 246 242 238 236 235 232 231 231 231 230 229 228 225 222 220 218 218 219 219 222 220 225 234 230 231 223 229 221 223 222 225 218 218 215 216 218 215 210 216 218 211 207 206 200 215 196
251 238 239 240 237 235 234 233 231 230 229 227 227 224 223 224 221 225 228 226 228 229 229 234 238 236 234 235 240 234 231 225 213 211 217 217 223 223 230 230 226 224 227 226 226 227 228
251 245 247 234 239 235 233 233 236 234 231 229 228 229 225 225 229 231 236 237 236 236 236 237 241 246 248 241 241 244 245 235 212 210 229 222 227 210 240 245 238 233 235 233 236 242 248
259 262 257 235 230 230 233 233 231 235 233 227 226 227 228 230 235 235 238 241 241 242 244 244 246 247 250 250 253 251 248 242 235 241 243 243 244 238 233 249 231 231 246 243 238 238 242
252 250 256 235 240 250 231 230 226 231 233 229 227 229 230 232 236 244 246 244 245 242 242 245 248 248 251 255 257 255 253 251 248 244 242 239 243 248 254 255 256 259 258 253 245 248 237
234 220 225 238 248 241 245 241 226 228 228 228 231 227 234 239 239 236 242 244 251 249 242 246 251 259 260 258 258 261 263 258 256 249 244 243 245 252 256 257 260 263 259 253 252 255 257
243 245 250 247 233 237 241 241 228 222 225 226 234 239 238 240 240 241 243 248 256 260 258 258 264 259 257 261 259 266 265 257 256 258 254 248 248 253 262 266 271 269 259 256 255 255 254
244 244 238 231 235 227 221 228 236 232 229 229 233 238 241 245 244 249 250 255 257 260 263 262 258 259 264 260 257 258 258 255 249 242 237 241 241 244 254 222 221 258 259 264 262 264 263
247 241 238 237 225 222 220 225 227 231 227 227 235 238 234 243 246 251 248 252 259 260 258 257 259 263 259 254 250 251 253 257 254 251 243 240 246 237 226 226 252 264 252 253 258 272 269
225 236 240 233 227 230 235 239 236 221 223 222 221 223 232 243 242 253 254 257 258 259 258 258 260 257 254 251 241 229 225 237 233 237 244 240 241 229 226 224 227 257 270 274 271 270 275
232 227 221 232 233 231 228 226 230 234 232 234 244 245 245 255 256 251 248 249 254 249 251 256 258 250 248 243 233 227 226 234 232 235 223 204 222 221 230 235 249 256 262 269 236 262 270
254 240 216 217 230 232 229 231 232 218 216 231 235 241 240 248 247 249 247 251 254 251 249 255 249 245 240 231 224 228 229 230 228 241 234 226 203 216 228 234 244 250 250 246 265 264 267
245 244 227 218 220 226 233 232 232 238 234 228 229 237 226 236 243 243 247 243 249 245 242 239 233 237 230 224 231 229 230 228 233 237 244 230 228 226 219 233 240 248 254 258 265 267 267